sat.trackr.live / text

‹ back to catalog

STARLINK-5973

NORAD 56916 · 2023-083AS

PAYLOAD ACTIVE UNKNOWN

§ Identity

Operator
Country
US
Launch date
2023-06-12
Launch site
AFETR
Launch vehicle
Mass (kg)
RCS (m²)

Purposes: comms

External: N2YO · Heavens-Above · Gunter

§ Orbital elements

Epoch: 2026-05-25T00:39:14.889888Z

Period
94.27 min
Inclination
43.0012°
Eccentricity
0.0001000
Mean motion
15.27576654 rev/d
Perigee alt
482.4 km
Apogee alt
483.7 km
Semi-major
6,861.2 km
B*
1.0501e-5
RAAN
359.5075°
Arg perigee
251.2614°
Mean anomaly
108.8129°
Rev number
16,344

§ Raw data

STARLINK-59731 56916U 23083AS  26145.02725567  .00000027  00000+0  10501-4 0  99942 56916  43.0012 359.5075 0001000 251.2614 108.8129 15.27576654163440

JSON: /api/v1/satellites/56916 · /tle

For live sub-satellite position, see the globe view (requires WebGL).

§ Visibility from observer

Set your observer location to see the next 7 days of passes ≥ 10°. The values pass through the URL so the page stays shareable.

No JS? Fill the form by hand. The geolocation button needs JavaScript.